Regional Weather Roundup
Issued by NWS

Home | Current Version | Previous Version | Graphics & Text | Print | Product List | Glossary On
Versions: 1 2 3 4 5 6 7 8 9 10 11 12 13 14 15 16 17 18 19 20 21 22 23 24 25 26 27
000
ASUS45 KCYS 230110
RWRWY

WYOMING REGIONAL WEATHER ROUNDUP
NATIONAL WEATHER SERVICE CHEYENNE WY
600 PM MST WED FEB 22 2017

NOTE:  "FAIR" INDICATES FEW OR NO CLOUDS BELOW 12,000 FEET
WITH NO SIGNIFICANT WEATHER AND/OR OBSTRUCTIONS TO VISIBILITY.

WYZ001-230200-
YELLOWSTONE NATIONAL PARK

CITY           SKY/WX    TMP DP  RH WIND       PRES   REMARKS
LK YELLOWSTONE   N/A     20  12  71 CALM      29.80S
W YELLOWSTONE  NOT AVBL

$$
WYZ002>013-054>058-071-098>099-230200-
NORTHERN WYOMING

CITY           SKY/WX    TMP DP  RH WIND       PRES   REMARKS
JACKSON        FAIR      27  19  74 CALM      29.80S
CODY           FAIR      31  24  75 CALM      29.85R
GREYBULL       FAIR      39  27  62 NW12      29.82R WCI  32
WORLAND        FAIR      37  25  61 N5        29.80S WCI  33
SHERIDAN       LGT SNOW  33  31  92 SW7       29.88R FOG     WCI  27
BUFFALO        LGT SNOW  32  29  88 NW8       29.87R VSB 3/4 WCI  25
GILLETTE       CLOUDY    34  29  82 N8        29.86R WCI  27
HULETT         CLOUDY    32  28  86 MISG      29.88S
NEWCASTLE      FAIR      37  23  56 NW12      29.84R WCI  30

$$
WYZ014>020-022>026-101>103-230200-
CENTRAL WYOMING

CITY           SKY/WX    TMP DP  RH WIND       PRES   REMARKS
BIG PINEY      CLOUDY    22  17  81 N12       29.77F WCI  10
PINEDALE       MOCLDY    23  19  86 NW6       29.80S WCI  16
DUBOIS         FAIR      23  12  63 W9        29.75S WCI  13
LANDER         FAIR      35  19  52 S3        29.75S
RIVERTON       FAIR      34  18  52 NE6       29.77S WCI  29
CASPER         FAIR      33  21  61 S5        29.80F WCI  29
DOUGLAS        CLOUDY    39  21  48 NW7       29.81S WCI  34

$$
WYZ021-027>030-104>119-230200-
SOUTHERN WYOMING

CITY           SKY/WX    TMP DP  RH WIND       PRES   REMARKS
EVANSTON       SNOW      26  23  88 NE5       29.74F VSB 1/2 WCI  20
KEMMERER         N/A     27  21  80 NE6       29.76F WCI  20
FORT BRIDGER   LGT SNOW  27  27 100 E8        29.78F VSB 3/4 WCI  19
ROCK SPRINGS   CLOUDY    28  21  75 CALM      29.77F
DIXON          LGT SNOW  31  28  89 NE5       29.81F VSB 3/4 WCI  26
RAWLINS        FLURRIES  29  25  85 CALM      29.79F
SARATOGA       SNOW      28  28 100 CALM      29.81F VSB 1/2
LARAMIE        CLOUDY    27  24  89 N12       29.78S WCI  17
CHEYENNE       CLOUDY    35  24  64 N9        29.81R WCI  28
TORRINGTON     CLOUDY    47  14  26 N7        29.79S
PINE BLUFFS    MOCLDY    37  19  48 N9        29.82R WCI  31

$$




USA.gov is the U.S. government's official web portal to all federal, state and local government web resources and services.